{"data":{"norad_id":64379,"intl_designator":"2025-127K","name":"STARLINK-11743 [DTC]","alt_names":[],"object_type":"PAYLOAD","status":"ACTIVE","operator":null,"country":"US","launch_date":"2025-06-13","launch_site_code":"AFETR","launch_vehicle":null,"mission":null,"orbit_class":"UNKNOWN","rcs_meters":null,"size_class":null,"mass_kg":null,"dimensions":null,"purposes":["comms"],"wikipedia_slug":null,"has_3d_model":false,"image_url":null,"decayed_at":null,"tle_current":{"epoch":"2026-05-24T23:01:50.448288Z","epoch_age_seconds":89272,"freshness":"FRESH","line1":"1 64379U 25127K   26144.95961167  .00188990  00000+0  14363-2 0  9990","line2":"2 64379  43.0023 345.1652 0004113 265.2443  94.7955 15.70946048 55490","mean_motion":15.70946048,"eccentricity":0.0004113,"inclination_deg":43.0023,"raan_deg":345.1652,"arg_perigee_deg":265.2443,"mean_anomaly_deg":94.7955,"bstar":0.0014363,"rev_number":5549,"period_min":91.66451017419,"perigee_km":353.42214408176,"apogee_km":358.96180309544,"semimajor_km":6734.3289735886,"source":"CELESTRAK","updated_at":"2026-05-25T13:38:20.411561Z"}}}